{"data":{"norad_id":57523,"intl_designator":"2023-115C","name":"STARLINK-30261","alt_names":[],"object_type":"PAYLOAD","status":"ACTIVE","operator":null,"country":"US","launch_date":"2023-08-08","launch_site_code":"AFWTR","launch_vehicle":null,"mission":null,"orbit_class":"UNKNOWN","rcs_meters":null,"size_class":null,"mass_kg":null,"dimensions":null,"purposes":["comms"],"wikipedia_slug":null,"has_3d_model":false,"image_url":null,"decayed_at":null,"tle_current":{"epoch":"2026-05-24T18:24:01.122624Z","epoch_age_seconds":98715,"freshness":"FRESH","line1":"1 57523U 23115C   26144.76667966  .00000052  00000+0  11429-4 0  9991","line2":"2 57523  43.0044 292.1766 0001558 265.1206  94.9468 15.27572107153986","mean_motion":15.27572107,"eccentricity":0.0001558,"inclination_deg":43.0044,"raan_deg":292.1766,"arg_perigee_deg":265.1206,"mean_anomaly_deg":94.9468,"bstar":1.1429e-5,"rev_number":15398,"period_min":94.267235792097,"perigee_km":482.00375414688,"apogee_km":484.14170709894,"semimajor_km":6861.2097306229,"source":"CELESTRAK","updated_at":"2026-05-25T13:38:18.331985Z"}}}